Regional Weather Roundup
Issued by NWS Kansas City/Pleasant Hill, MO

Home | Current Version | Previous Version | Text Only | Print | Product List | Glossary On
Versions: 1 2 3 4 5 6 7 8 9 10 11 12 13 14 15 16 17 18 19 20 21 22 23 24 25 26 27 28 29 30 31 32 33 34 35 36 37 38 39 40 41 42 43 44 45 46 47 48 49 50
000
ASUS43 KEAX 281311
RWREAX

WEATHER ROUNDUP FOR EASTERN KANSAS AND NORTHWEST MISSOURI
NATIONAL WEATHER SERVICE KANSAS CITY/PLEASANT HILL MO
800 AM CDT THU MAY 28 2015

KSZ040-057-103>105-MOZ028-029-037-043-281400-
...KANSAS CITY METROPOLITAN AREA...

CITY           SKY/WX    TMP DP  RH WIND       PRES   REMARKS
K.C. INTL      RAIN      63  62  97 E7        30.11S FOG
K.C. DOWNTOWN  CLOUDY    65  62  90 NE6       30.10F
LEES SUMMIT    CLOUDY    64  62  93 NW3       30.11S
OLATHE - IXD   LGT RAIN  64  62  93 E6        30.09F
OLATHE - OJC   CLOUDY    66  63  90 NE5       30.08F
LAWRENCE       CLOUDY    65  62  90 N5        30.05F

$$

MOZ001>008-011>017-020>025-030>033-038>040-044>046-053-054-281400-
...NORTHERN AND CENTRAL MISSOURI...

CITY           SKY/WX    TMP DP  RH WIND       PRES   REMARKS
ST. JOSEPH     LGT RAIN  63  61  93 SE6       30.12S
MOSBY          TSTM      63  59  88 CALM      30.13R VSB 3/4
WARRENSBURG    CLOUDY    64  59  82 CALM      30.10S
WHITEMAN AFB   PTSUNNY   65  60  81 SE7       30.10S
CLINTON        CLOUDY    66  63  88 E3        30.10F
SEDALIA        CLOUDY    66  59  78 SE8       30.13R
WARSAW         NOT AVBL
CHILLICOTHE      N/A     66  59  78 SE3       30.13S
KIRKSVILLE     CLOUDY    66  60  81 SE8       30.16S

$$

MOZ041-047>049-056>058-063>065-088>090-097-281400-
...EASTERN AND SOUTHERN MISSOURI...

CITY           SKY/WX    TMP DP  RH WIND       PRES   REMARKS
ST. LOUIS INTL PTSUNNY   71  59  65 E9        30.17R
SPIRIT OF STL  MOSUNNY   69  62  78 E3        30.15R
COLUMBIA       PTSUNNY   68  60  75 SE10      30.14R
JEFFERSON CITY PTSUNNY   68  61  78 SE6       30.13R
ROLLA          PTSUNNY   65  64  97 SE7       30.13R
OSAGE BEACH    CLOUDY    66  63  88 NE3       30.12S
SPRINGFIELD    MOSUNNY   70  67  90 S8        30.12R
BRANSON        FOG       66  66 100 CALM      30.14R VSB 1/2
JOPLIN         PTSUNNY   68  65  90 CALM      30.10S
WEST PLAINS    FOG       68  66  93 SE6       30.16S VSB 1/2

$$

IAZ060-094-KSZ022-034>040-054-083-096-NEZ052-066-093-281400-
...KANSAS...SOUTHEAST NEBRASKA AND IOWA...

CITY           SKY/WX    TMP DP  RH WIND       PRES   REMARKS
TOPEKA         CLOUDY    65  64  97 E3        30.06F
MANHATTAN      LGT RAIN  64  63  96 SE6       30.04F
EMPORIA        CLOUDY    65  64  97 S7        30.08R
CHANUTE        CLOUDY    67  65  93 E10       30.06F
WICHITA        CLOUDY    66  63  90 S3        30.04F
OMAHA          CLOUDY    66  56  70 S9        30.08R
LINCOLN        LGT RAIN  63  62  97 S8        30.06F FOG
LAMONI         CLOUDY    67  57  70 SE7       30.12F
DES MOINES     CLOUDY    66  57  72 S8        30.13S

$$



USA.gov is the U.S. government's official web portal to all federal, state and local government web resources and services.